Tracking 23114 objects as of 14-May-2021
HD Live streaming from Space Station
objects crossing your sky now

ARIANE 5 R/B

Track ARIANE 5 R/B now!


NORAD ID: 41383
Int'l Code: 2016-014B
Perigee: 197.7 km
Apogee: 31,019.2 km
Inclination: 0.8 °
Period: 540.5 minutes
Semi major axis: 21979 km
RCS: Unknown
Launch date: March 9, 2016
Source: France (FR)
Launch site: FRENCH GUIANA (FRGUI)

Note: This is a ROCKET BODY
aabbcc
Your satellite tracking list
Your tracking list is empty




NASA's NSSDC Master Catalog

Two Line Element Set (TLE):
1 41383U 16014B   21133.25330176  .00028194  98186-6  14536-2 0  9991
2 41383   0.7614 327.4243 7011436  88.4466 351.9891  2.66426910 47139
Source of the keplerian elements: AFSPC